Flag Weather past 2 weeks in Cologne, North Rhine-Westphalia, Germany

Now
59 °F

Broken clouds.


Feels Like: 59 °F
Forecast: 52 / 65 °F
Wind: 5 mph from Southeast

Location: Koeln / Bonn

Current Time: Oct 30, 2014 at 2:02:50 PM

Latest Report: Oct 30, 2014 at 1:20 PM


Visibility: N/A

Pressure: 30.24 "Hg

Humidity: 82%

Dew point: 54 °F

Location of CologneLocation

Historic Weather in Cologne — Graph

°F

Cologne temperature yesterday

Maximum temperature yesterday: 54 °F (at 1:50 PM)
Minimum temperature yesterday: 36 °F (at 7:20 AM)
Average temperature yesterday: 46 °F

Past Weeks' High & Low Weather Summary

 TemperatureHumidityPressure
High75 °F (Oct 19, 1:50 PM)100% (Oct 25, 9:20 AM)30.30 "Hg (Oct 25, 9:20 AM)
Low36 °F (Oct 29, 7:20 AM)54% (Oct 19, 1:50 PM)29.53 "Hg (Oct 21, 4:20 PM)
Average53 °F84%30.05 "Hg
* Reported Oct 15 1:20 PM — Oct 30 12:50 PM, Cologne, Weather by CustomWeather, © 2014

Note: Actual official high and low records may vary slightly from our data, if they occured in-between our weather recording intervals... More about our weather records

Advertising

Cologne weather history for previous 24 hours

 ConditionsComfort  
Time TempWeatherWind HumidityBarometerVisibility
12:50 PM
Oct 30
59 °FBroken clouds.7 mph82%30.21 "HgN/A
12:20 PM57 °FPartly sunny.6 mph88%30.24 "HgN/A
11:50 AM55 °FPartly sunny.5 mph88%30.24 "HgN/A
11:20 AM55 °FBroken clouds.6 mph88%30.24 "HgN/A
10:50 AM54 °FPartly sunny.5 mph94%30.21 "HgN/A
10:20 AM54 °FPartly sunny.6 mph94%30.21 "Hg6 mi
9:50 AM54 °FBroken clouds.7 mph88%30.21 "Hg6 mi
9:20 AM54 °FPartly sunny.3 mph94%30.21 "Hg5 mi
8:50 AM52 °FPartly sunny.3 mph94%30.21 "Hg5 mi
8:20 AM52 °FPartly sunny.5 mph94%30.21 "Hg6 mi
7:50 AM52 °FPartly sunny.5 mph94%30.21 "Hg5 mi
7:20 AM52 °FLow clouds.3 mph94%30.18 "Hg4 mi
6:50 AM52 °FOvercast.2 mph94%30.18 "Hg4 mi
6:20 AM52 °FFog.2 mph94%30.18 "Hg3 mi
5:50 AM52 °FFog.2 mph94%30.18 "Hg3 mi
5:20 AM52 °FFog.6 mph94%30.15 "Hg2 mi
4:50 AM52 °FDrizzle. Fog.3 mph94%30.15 "Hg2 mi
4:20 AM52 °FFog.3 mph94%30.15 "Hg2 mi
3:50 AM52 °FFog.3 mph94%30.15 "Hg3 mi
3:20 AM52 °FFog.3 mph94%30.15 "Hg3 mi
2:50 AM52 °FFog.5 mph94%30.15 "Hg3 mi
2:20 AM52 °FPartly cloudy.5 mph94%30.15 "Hg4 mi
1:50 AM52 °FFog.3 mph94%30.15 "Hg3 mi
1:20 AM52 °FFog.3 mph94%30.15 "Hg3 mi
12:50 AM52 °FFog.1 mph94%30.15 "Hg3 mi
12:20 AM50 °FFog.2 mph100%30.15 "Hg3 mi
11:50 PM
Oct 29
50 °FFog.2 mph100%30.12 "Hg3 mi
11:20 PM50 °FFog.2 mph100%30.12 "Hg3 mi
10:50 PM50 °FFog.2 mph100%30.12 "Hg3 mi
10:20 PM50 °FFog.2 mph100%30.12 "Hg3 mi
9:50 PM50 °FDrizzle. Fog.5 mph94%30.12 "Hg3 mi
9:20 PM50 °FDrizzle. Fog.2 mph94%30.12 "Hg3 mi
8:50 PM50 °FDrizzle. Mostly cloudy.2 mph94%30.12 "Hg4 mi
8:20 PM50 °FDrizzle. Low clouds.3 mph94%30.12 "Hg6 mi
7:50 PM50 °FLow clouds.2 mph94%30.09 "Hg6 mi
7:20 PM50 °FDrizzle. Low clouds.2 mph94%30.09 "Hg6 mi
6:50 PM50 °FDrizzle. Low clouds.2 mph94%30.09 "HgN/A
6:20 PM50 °FDrizzle. Overcast.5 mph94%30.09 "HgN/A
5:50 PM50 °FPassing clouds.2 mph94%30.07 "HgN/A
5:20 PM50 °FPassing clouds.3 mph94%30.07 "Hg6 mi
4:50 PM52 °FPartly sunny.2 mph88%30.07 "HgN/A
4:20 PM52 °FLight rain. Overcast.2 mph88%30.07 "Hg5 mi
3:50 PM52 °FRain. Overcast.1 mph88%30.07 "Hg5 mi
3:20 PM52 °FPartly sunny.2 mph82%30.07 "HgN/A
2:50 PM52 °FLight rain. Partly sunny.3 mph88%30.07 "HgN/A
2:20 PM52 °FLight rain. Broken clouds.3 mph82%30.07 "HgN/A
Weather by CustomWeather, © 2014

See weather overviewHow to use our weather pages